Regional Weather Roundup
Issued by NWS Sioux Falls, SD

Home | Current Version | Previous Version | Text Only | Print | Product List | Glossary Off
Versions: 1 2 3 4 5 6 7 8 9 10 11 12 13 14 15 16 17 18 19 20 21 22 23 24 25 26 27 28 29 30 31 32 33 34 35 36 37 38 39 40 41 42 43 44 45 46 47 48 49 50

000
ASUS43 KFSD 051410
RWRFSD

WEATHER ROUNDUP FOR SE SOUTH DAKOTA/SW MINNESOTA/NW IOWA
NATIONAL WEATHER SERVICE SIOUX FALLS SD
900 AM CDT SUN JUL 05 2015

NOTE: "FAIR" INDICATES FEW OR NO CLOUDS BELOW 12,000 FEET WITH NO
SIGNIFICANT WEATHER AND OR OBSTRUCTIONS TO VISIBILITY.


SDZ038>040-050-052>070-051500-
SOUTHEAST SOUTH DAKOTA

CITY           SKY/WX    TMP DP  RH WIND       PRES   REMARKS
BROOKINGS      PTSUNNY   70  64  83 S14       29.86S
CHAMBERLAIN    SUNNY     73  67  81 SE13      29.78S
HURON          SUNNY     74  65  73 S21G29    29.78F
MADISON        FAIR      70  70 100 S17G24    29.85F
MITCHELL       SUNNY     75  66  73 SE16      29.83F
SIOUX FALLS    PTSUNNY   69  66  90 E10       29.89F FOG
WINNER         FAIR      78  65  63 SE16      29.78R
YANKTON        MOSUNNY   73  63  68 S13G23    29.85F
$$

MNZ071-072-080-081-089-090-097-098-051500-
SOUTHWEST MINNESOTA

CITY           SKY/WX    TMP DP  RH WIND       PRES   REMARKS
FAIRMONT       CLOUDY    70  61  73 S10       29.96S
JACKSON        CLOUDY    68  63  83 S12       29.96S
LUVERNE        CLOUDY    68  64  88 S6        29.93F
MARSHALL       PTSUNNY   72  61  68 E10       29.80F
MONTEVIDEO     CLOUDY    72  64  78 S9        29.83F
PIPESTONE      LGT RAIN  66  64  94 S16G24    29.83F
REDWOOD FALLS  CLOUDY    72  62  71 S18       29.86F
TRACY          CLOUDY    70  64  81 S16G24    29.83F
WINDOM         CLOUDY    70  61  73 S14       29.92F
WORTHINGTON    CLOUDY    64  61  88 S7        29.95F
$$

IAZ001>003-012>014-020>022-031-032-NEZ013-014-SDZ071-051500-
NORTHWEST IOWA

CITY           SKY/WX    TMP DP  RH WIND       PRES   REMARKS
CHEROKEE       CLOUDY    68  66  92 SW6       29.97R
DENISON        CLOUDY    70  64  83 VRB6G15   29.95R
ESTHERVILLE    CLOUDY    65  62  90 S10       29.97R
LE MARS        CLOUDY    70  66  88 S21G26    29.90F
ORANGE CITY    CLOUDY    66  64  94 S5        29.93F
SHELDON        CLOUDY    68  68 100 CALM      29.95R
SIOUX CITY     CLOUDY    68  63  84 SE8       29.94F
SPENCER        CLOUDY    68  61  78 S6        29.97R
STORM LAKE       N/A     68  64  88 S10       29.98R
$$

ABBREVIATIONS USED IN REMARKS
   TC - TEMPERATURE IN CELSIUS
  WCI - WIND CHILL INDEX
   HX - HEAT INDEX
  VSB - VISIBILITY



USA.gov is the U.S. government's official web portal to all federal, state and local government web resources and services.